Tracking 19281 objects as of 16-Nov-2018
HD Live streaming from Space Station
objects crossing your sky now

DIRECTV 6 (TEMPO 2)

Track DIRECTV 6 (TEMPO 2) now!
DIRECTV 6 (TEMPO 2) is classified as:


NORAD ID: 24748
Int'l Code: 1997-011A
Perigee: 36,004.2 km
Apogee: 36,288.2 km
Inclination: 9.7 °
Period: 1,454.1 minutes
Semi major axis: 42517 km
RCS: 12.5892 m2 (large)
Launch date: March 8, 1997
Source: United States (US)
Launch site: AIR FORCE EASTERN TEST RANGE (AFETR)

Direct-to-home TV; 32 Ku-band transponders
aabbcc
Your satellite tracking list
Your tracking list is empty




NASA's NSSDC Master Catalog

Two Line Element Set (TLE):
1 24748U 97011A   18318.83243782 +.00000065 +00000-0 +00000-0 0  9992
2 24748 009.7253 040.9019 0033408 246.9179 133.6092 00.99027543079045
Source of the keplerian elements: AFSPC